Cloud_Cover
100 100 100 100 20 14 83 19 80 83 100 15 42 5 4 5 26 65 7 21 5 5 1 0 0 0 0 0 0 0 0 0 0 0 4 5 5 4 0 0 0 5 7 5 3 4 3 0 0
100 100 100 100 6 8 97 96 84 59 100 89 99 4 0 0 87 34 46 25 4 5 4 2 0 0 0 0 0 0 0 0 5 3 5 11 9 5 3 5 2 0 3 32 100 74 5 1 0
100 100 100 83 12 6 100 97 100 100 74 100 35 0 4 9 53 17 2 84 4 5 5 2 0 0 0 0 0 0 0 0 0 1 4 5 2 4 4 5 3 17 79 100 100 10 5 5 5
97 100 100 26 5 100 100 100 99 100 84 100 99 17 2 67 84 5 2 98 5 5 0 16 2 0 4 5 1 0 0 0 0 0 0 0 0 0 0 0 6 35 28 7 0 0 0 1 0
13 70 8 5 5 100 100 100 100 100 100 100 11 93 49 9 72 5 5 9 52 20 11 14 6 6 8 5 5 5 1 0 0 0 0 0 0 0 0 4 5 3 0 0 0 0 0 0 0
31 4 4 15 5 100 100 89 100 25 95 99 58 100 53 91 76 91 5 7 100 46 5 5 55 100 92 5 5 5 5 5 1 0 0 0 5 5 5 2 2 0 5 2 0 5 0 0 5
0 99 5 13 78 100 100 100 100 94 45 97 49 37 97 37 100 100 89 98 100 100 32 24 5 5 5 57 66 15 47 12 19 5 4 2 0 5 5 5 5 3 0 0 0 5 5 15 12
0 0 4 3 95 85 100 91 100 100 100 100 38 97 95 24 100 100 100 100 100 100 100 95 99 81 33 12 57 5 5 11 24 5 46 93 100 55 89 100 90 88 4 3 5 3 5 7 5
0 0 2 2 5 79 100 100 100 100 83 76 100 100 99 78 100 100 100 100 65 84 100 100 100 100 81 55 31 68 84 12 5 6 5 68 84 77 71 58 99 100 99 14 27 92 100 100 100
0 0 0 0 5 95 100 100 100 98 87 100 98 100 100 82 100 100 92 88 84 78 76 100 100 100 97 49 34 34 55 59 4 4 17 5 5 5 5 4 41 77 70 90 30 46 91 53 5
0 0 0 0 2 60 100 100 100 45 33 99 100 100 100 100 100 100 100 98 58 100 98 72 100 100 100 100 69 22 5 5 0 3 5 0 2 4 5 7 63 4 5 63 91 26 5 48 69
0 0 0 0 6 75 3 100 100 18 100 100 100 100 100 100 100 100 100 100 100 95 96 40 99 99 100 93 99 75 100 57 13 14 5 3 2 5 5 19 9 5 5 5 78 86 6 71 100
0 0 0 0 3 0 0 89 100 86 100 100 100 100 100 100 100 100 100 100 53 77 51 100 100 100 100 91 56 96 46 84 100 100 92 98 85 58 67 45 14 5 5 5 26 26 59 100 78
5 0 0 0 0 0 5 24 100 100 100 100 100 100 100 100 100 100 100 100 100 97 82 100 100 100 100 97 15 98 99 100 72 92 75 93 91 100 96 19 42 48 5 20 5 5 15 18 8
13 2 0 0 0 0 10 100 100 100 100 100 100 100 100 100 100 100 100 100 100 57 62 28 100 100 100 100 43 84 100 100 100 100 69 82 95 100 100 69 79 47 68 38 5 5 92 84 80
0 1 0 0 0 0 0 100 100 100 100 100 100 100 100 100 100 100 100 100 85 53 65 97 91 100 100 100 98 97 100 93 100 91 100 35 96 96 99 97 74 100 98 10 12 37 95 100 95
0 0 0 0 0 0 0 91 100 100 100 100 100 100 100 100 100 100 100 100 100 100 100 100 92 100 100 100 100 94 97 100 100 100 100 98 88 100 100 100 99 100 99 100 83 19 44 85 15
7 11 0 3 42 0 0 3 99 100 100 100 100 100 100 100 100 100 100 100 100 100 100 100 100 69 56 100 100 100 48 100 100 100 100 100 100 66 92 100 100 100 100 100 100 87 88 94 84
66 15 11 40 86 0 0 0 0 25 100 100 100 100 100 100 100 100 100 100 100 100 100 100 100 100 62 62 100 100 100 77 100 100 75 100 100 100 100 40 41 50 100 100 100 51 27 88 99
5 0 0 0 0 0 0 0 0 0 0 1 96 100 100 100 100 100 100 100 100 100 100 100 100 100 100 90 100 100 100 99 67 81 56 48 100 100 100 100 100 93 100 100 100 100 89 99 80
1 2 0 0 4 73 1 0 0 0 0 0 0 62 100 100 100 100 100 100 100 100 57 98 100 100 100 100 79 76 100 100 100 86 100 100 100 92 100 100 91 100 100 100 100 96 100 100 55
5 2 9 4 2 0 1 5 2 1 3 4 1 0 4 92 100 99 100 100 69 100 100 100 100 100 100 100 100 100 100 100 100 100 100 100 86 24 38 56 44 100 100 100 100 100 95 100 96
33 89 32 5 5 4 4 15 4 58 76 86 99 23 1 0 0 70 99 100 100 100 61 100 100 100 100 100 100 100 100 100 100 100 100 100 100 100 100 100 100 11 18 100 100 100 96 82 97
28 5 5 3 9 45 5 63 6 94 100 97 21 5 0 0 0 0 0 85 100 100 98 16 6 4 72 87 100 100 100 100 100 100 100 100 100 100 100 100 100 100 100 100 100 100 100 100 100
100 59 55 100 100 71 88 100 99 99 64 28 5 0 0 0 0 0 0 0 9 82 98 100 100 97 64 2 0 11 21 17 25 91 100 100 100 100 100 100 100 100 100 100 100 100 100 100 100
100 100 100 73 66 78 99 100 75 90 11 1 0 0 0 0 0 0 0 0 0 0 0 5 0 1 11 38 5 4 0 0 0 0 1 0 11 98 100 100 100 65 100 100 100 100 100 100 100
100 99 100 84 65 68 100 84 19 55 3 0 0 0 0 2 21 42 2 4 5 0 0 0 0 2 1 0 0 0 0 0 0 4 3 0 0 0 5 97 100 97 80 57 6 27 21 97 100
100 100 100 100 100 91 75 90 83 83 86 81 67 64 18 1 1 82 20 25 4 5 1 0 4 12 2 5 2 0 0 0 0 0 0 0 0 0 2 7 75 75 73 70 26 20 6 100 49
100 100 100 100 100 100 100 37 52 85 3 0 0 0 0 52 93 32 2 0 0 19 21 1 0 5 4 33 97 11 3 5 7 0 0 0 0 4 26 5 3 84 49 59 99 100 83 100 100
100 100 100 100 88 81 100 82 5 30 6 5 5 94 99 77 47 38 8 40 4 0 1 6 98 7 50 6 29 7 3 5 14 40 1 0 2 0 0 19 72 46 92 100 100 100 100 100 100